Terminal Aerodrome Forecast
Issued by NWS

Home | Current Version | Previous Version | Graphics & Text | Print | Product List | Glossary On
Versions: 1 2 3 4 5 6 7 8 9 10 11 12 13 14 15 16 17 18 19
000
FTUS43 KICT 190500
TAFHUT
TAF
KHUT 190520Z 1906/2006 13007KT P6SM BKN200
     FM190800 18007KT P6SM OVC150
     FM191100 18009KT P6SM OVC120=

USA.gov is the U.S. government's official web portal to all federal, state and local government web resources and services.